Weather History for Jacksonville, FL

Change the Weather History Date:

Wednesday, June 19, 2013

  Actual Average Record
Temperature  
Mean Temperature 84 °F 80 °F  
Max Temperature 94 °F 90 °F 103 °F (1998)
Min Temperature 73 °F 71 °F 60 °F (1899)
Degree Days  
Heating Degree Days 0 0  
Month to date heating degree days 0 0  
Since 1 June heating degree days 0 0  
Since 1 July heating degree days 1243 1349  
Cooling Degree Days 19 16  
Month to date cooling degree days 300 271  
Year to date cooling degree days 736 755  
Since 1 June cooling degree days 300 271  
Growing Degree Days 33 (Base 50)    
Moisture  
Dew Point 71 °F    
Average Humidity 70    
Maximum Humidity 93    
Minimum Humidity 47    
Precipitation  
Precipitation 0.00 in 0.24 in 4.37 in (1972)
Month to date precipitation 3.63 3.88  
Year to date precipitation 20.87 19.44  
Snow  
Snow 0.00 in 0.00 in 0.00 in (2002)
Month to date snowfall 0.0 0.0  
Since 1 June snowfall 0.0 0.0  
Since 1 July snowfall 0.0 T  
Snow Depth 0.00 in    
Sea Level Pressure  
Sea Level Pressure 29.99 in    
Wind  
Wind Speed 8 mph (WSW)    
Max Wind Speed 17 mph    
Max Gust Speed 22 mph    
Visibility 10 miles    
Events Rain , Thunderstorm    
T = Trace of Precipitation, MM = Missing Value Source: NWS Daily Summary

Daily Weather History Graph

Daily Weather History Graph

Search for Another Location

Airport:

Trip Planner

Search our weather history database for the weather conditions in past years. The results will help you decide how hot, cold, wet, or windy it might be!

Date:

Astronomy

Jun. 19, 2013 Rise Set
Actual Time 6:24 AM EDT 8:31 PM EDT
Civil Twilight 5:56 AM EDT 8:59 PM EDT
Nautical Twilight 5:23 AM EDT 9:33 PM EDT
Astronomical Twilight 4:47 AM EDT 10:09 PM EDT
Moon 4:33 PM EDT (6/19) 2:55 AM EDT (6/19)
Length of Visible Light 15h 02m
Length of Day
14h 07m
Waxing Gibbous, 80% of the Moon is Illuminated
Jun 19
Waxing Gibbous
Jun 23
Full
Jun 30
Last Quarter
Jul 8
New
Jul 15
First Quarter

Hourly Weather History & Observations

Time (EDT) Temp. Heat Index Dew Point Humidity Pressure Visibility Wind Dir Wind Speed Gust Speed Precip Events Conditions
12:56 AM 75.9 °F - 72.0 °F 87% 29.99 in 10.0 mi SW 6.9 mph - N/A   Mostly Cloudy
1:56 AM 75.9 °F - 72.0 °F 87% 29.97 in 10.0 mi SW 5.8 mph - N/A   Mostly Cloudy
2:56 AM 75.0 °F - 72.0 °F 90% 29.97 in 10.0 mi SSW 5.8 mph - N/A   Partly Cloudy
3:56 AM 75.0 °F - 72.0 °F 90% 29.98 in 10.0 mi SSW 6.9 mph - 0.01 in   Partly Cloudy
4:56 AM 73.9 °F - 72.0 °F 93% 29.99 in 10.0 mi SW 5.8 mph - N/A   Clear
5:56 AM 73.0 °F - 72.0 °F 96% 30.00 in 9.0 mi SSW 4.6 mph - N/A   Scattered Clouds
6:56 AM 73.9 °F - 72.0 °F 93% 30.00 in 7.0 mi SSW 5.8 mph - N/A   Scattered Clouds
7:56 AM 77.0 °F - 73.9 °F 90% 30.01 in 7.0 mi SW 6.9 mph - N/A   Scattered Clouds
8:56 AM 82.0 °F 87.9 °F 73.9 °F 76% 30.01 in 10.0 mi WSW 11.5 mph - N/A   Scattered Clouds
9:56 AM 84.9 °F 92.1 °F 73.9 °F 69% 30.01 in 10.0 mi WSW 11.5 mph - 0.98 in   Mostly Cloudy
10:56 AM 84.9 °F 91.4 °F 73.0 °F 67% 30.02 in 10.0 mi West 10.4 mph - N/A   Mostly Cloudy
11:56 AM 88.0 °F 92.9 °F 70.0 °F 55% 30.02 in 10.0 mi West 15.0 mph - N/A   Mostly Cloudy
12:56 PM 90.0 °F 95.4 °F 70.0 °F 52% 30.01 in 10.0 mi WSW 10.4 mph 17.3 mph N/A   Mostly Cloudy
1:56 PM 90.0 °F 93.6 °F 68.0 °F 48% 29.99 in 10.0 mi West 6.9 mph - N/A   Mostly Cloudy
2:56 PM 91.0 °F 95.2 °F 68.0 °F 47% 29.97 in 10.0 mi WSW 8.1 mph - N/A   Mostly Cloudy
3:56 PM 91.9 °F 96.9 °F 69.1 °F 47% 29.96 in 10.0 mi SW 10.4 mph - N/A   Mostly Cloudy
4:56 PM 91.9 °F 97.4 °F 70.0 °F 48% 29.94 in 10.0 mi SW 8.1 mph - N/A   Mostly Cloudy
5:56 PM 91.0 °F 95.6 °F 69.1 °F 48% 29.94 in 10.0 mi SW 6.9 mph - N/A   Mostly Cloudy
6:56 PM 87.1 °F 92.0 °F 70.0 °F 57% 29.95 in 10.0 mi West 12.7 mph 16.1 mph N/A   Mostly Cloudy
7:41 PM 82.4 °F 86.3 °F 69.8 °F 66% 29.97 in 10.0 mi NNW 10.4 mph - N/A Thunderstorm Thunderstorm
7:56 PM 82.0 °F 86.3 °F 71.1 °F 69% 29.99 in 10.0 mi NNE 11.5 mph - N/A Thunderstorm Thunderstorm
8:23 PM 78.8 °F - 71.6 °F 78% 29.99 in 10.0 mi ENE 12.7 mph - N/A   Mostly Cloudy
8:56 PM 78.1 °F - 69.1 °F 74% 30.01 in 10.0 mi ESE 10.4 mph - N/A   Overcast
9:09 PM 77.0 °F - 69.8 °F 78% 30.01 in 10.0 mi ESE 8.1 mph - N/A Thunderstorm Thunderstorm
9:56 PM 77.0 °F - 71.1 °F 82% 30.04 in 10.0 mi North 5.8 mph - 0.01 in Thunderstorm Thunderstorm
10:15 PM 75.2 °F - 71.6 °F 89% 30.03 in 10.0 mi NE 4.6 mph - N/A   Mostly Cloudy
10:56 PM 75.9 °F - 71.1 °F 85% 30.01 in 10.0 mi East 6.9 mph - 0.01 in   Mostly Cloudy
11:56 PM 75.9 °F - 72.0 °F 87% 30.05 in 10.0 mi WNW 6.9 mph - N/A   Mostly Cloudy